Data No,UTC Date,UTC Time,Latitude,Longitude,Course(deg),Temp(degC),Sal(psu)
513,2023/12/7,8:32,42-36.97N,141-37.13E,211,8.108,32.758
514,2023/12/7,8:33,42-36.75N,141-36.95E,208,8.15,32.6705
515,2023/12/7,8:34,42-36.49N,141-36.90E,176,8.111,32.4136
516,2023/12/7,8:35,42-36.26N,141-37.04E,149,8.098,32.3816
517,2023/12/7,8:36,42-36.04N,141-37.28E,140,8.336,32.4912
518,2023/12/7,8:37,42-35.81N,141-37.54E,139,8.562,32.6663
519,2023/12/7,8:38,42-35.59N,141-37.80E,138,8.71,32.8308
520,2023/12/7,8:39,42-35.36N,141-38.08E,138,8.962,32.9849
521,2023/12/7,8:40,42-35.12N,141-38.36E,137,9.077,33.1165
522,2023/12/7,8:41,42-34.89N,141-38.63E,138,9.132,33.2116
523,2023/12/7,8:42,42-34.65N,141-38.92E,138,9.15,33.2539
524,2023/12/7,8:43,42-34.41N,141-39.21E,138,9.169,33.2789
525,2023/12/7,8:44,42-34.17N,141-39.50E,137,9.171,33.2912
526,2023/12/7,8:45,42-33.93N,141-39.79E,138,9.176,33.2892
527,2023/12/7,8:46,42-33.68N,141-40.09E,138,9.17,33.2914
528,2023/12/7,8:47,42-33.44N,141-40.38E,137,9.15,33.2979
529,2023/12/7,8:48,42-33.20N,141-40.69E,137,9.126,33.2886
530,2023/12/7,8:49,42-32.94N,141-41.00E,137,9.079,33.269
531,2023/12/7,8:50,42-32.69N,141-41.32E,137,9.028,33.2593
532,2023/12/7,8:51,42-32.46N,141-41.61E,137,8.98,33.2477
533,2023/12/7,8:52,42-32.21N,141-41.92E,138,8.926,33.2325
534,2023/12/7,8:53,42-31.96N,141-42.22E,136,8.894,33.2198
535,2023/12/7,8:54,42-31.70N,141-42.54E,137,8.92,33.2084
536,2023/12/7,8:55,42-31.45N,141-42.85E,137,8.883,33.1986
537,2023/12/7,8:56,42-31.20N,141-43.16E,137,8.822,33.201
538,2023/12/7,8:57,42-30.93N,141-43.49E,137,8.772,33.1948
539,2023/12/7,8:58,42-30.67N,141-43.81E,137,8.74,33.1755
540,2023/12/7,8:59,42-30.41N,141-44.12E,138,8.708,33.1644
541,2023/12/7,9:00,42-30.16N,141-44.43E,137,8.681,33.1574
542,2023/12/7,9:01,42-29.89N,141-44.76E,137,8.673,33.1451
543,2023/12/7,9:02,42-29.63N,141-45.08E,137,8.677,33.1406
544,2023/12/7,9:03,42-29.37N,141-45.40E,137,8.646,33.1547
545,2023/12/7,9:04,42-29.09N,141-45.74E,138,8.578,33.1604
546,2023/12/7,9:05,42-28.84N,141-46.05E,137,8.493,33.1534
547,2023/12/7,9:06,42-28.57N,141-46.38E,137,8.476,33.1333
548,2023/12/7,9:07,42-28.30N,141-46.71E,137,8.49,33.104
549,2023/12/7,9:08,42-28.04N,141-47.03E,138,8.488,33.0856
550,2023/12/7,9:09,42-27.76N,141-47.36E,137,8.493,33.0756
551,2023/12/7,9:10,42-27.50N,141-47.68E,138,8.487,33.0719
552,2023/12/7,9:11,42-27.23N,141-48.01E,137,8.482,33.0693
553,2023/12/7,9:12,42-26.96N,141-48.34E,138,8.488,33.0617
554,2023/12/7,9:13,42-26.69N,141-48.66E,137,8.491,33.0581
555,2023/12/7,9:14,42-26.42N,141-48.99E,137,8.48,33.0602
556,2023/12/7,9:15,42-26.14N,141-49.32E,138,8.478,33.0604
557,2023/12/7,9:16,42-25.87N,141-49.64E,138,8.478,33.0661
558,2023/12/7,9:17,42-25.59N,141-49.97E,139,8.47,33.0659
559,2023/12/7,9:18,42-25.32N,141-50.29E,139,8.466,33.0632
560,2023/12/7,9:19,42-25.03N,141-50.63E,139,8.47,33.0642
561,2023/12/7,9:20,42-24.76N,141-50.94E,138,8.469,33.0642
562,2023/12/7,9:21,42-24.49N,141-51.26E,139,8.453,33.0642
563,2023/12/7,9:22,42-24.20N,141-51.59E,138,8.455,33.0655
564,2023/12/7,9:23,42-23.94N,141-51.91E,138,8.459,33.0587
565,2023/12/7,9:24,42-23.65N,141-52.24E,140,8.466,33.0641
566,2023/12/7,9:25,42-23.40N,141-52.60E,124,8.472,33.0616
567,2023/12/7,9:26,42-23.21N,141-53.07E,119,8.472,33.0614
568,2023/12/7,9:27,42-23.05N,141-53.45E,119,8.461,33.0658
569,2023/12/7,9:28,42-22.87N,141-53.86E,120,8.458,33.0641
570,2023/12/7,9:29,42-22.69N,141-54.29E,119,8.456,33.0637
571,2023/12/7,9:30,42-22.50N,141-54.72E,119,8.452,33.0584
572,2023/12/7,9:31,42-22.32N,141-55.16E,120,8.443,33.0636
573,2023/12/7,9:32,42-22.13N,141-55.60E,119,8.448,33.0727
574,2023/12/7,9:33,42-21.95N,141-56.05E,119,8.45,33.0715
575,2023/12/7,9:34,42-21.76N,141-56.48E,119,8.455,33.0709
576,2023/12/7,9:35,42-21.59N,141-56.91E,119,8.457,33.0725
577,2023/12/7,9:36,42-21.40N,141-57.34E,120,8.455,33.0795
578,2023/12/7,9:37,42-21.21N,141-57.79E,119,8.442,33.0829
579,2023/12/7,9:38,42-21.02N,141-58.23E,120,8.445,33.0896
580,2023/12/7,9:39,42-20.84N,141-58.65E,120,8.455,33.1004
581,2023/12/7,9:40,42-20.65N,141-59.09E,119,8.476,33.0998
582,2023/12/7,9:41,42-20.46N,141-59.53E,120,8.499,33.1032
583,2023/12/7,9:42,42-20.27N,141-59.97E,119,8.525,33.1056
584,2023/12/7,9:43,42-20.09N,142-00.40E,120,8.557,33.1082
585,2023/12/7,9:44,42-19.89N,142-00.84E,119,8.575,33.1167
586,2023/12/7,9:45,42-19.71N,142-01.29E,119,8.588,33.1198
587,2023/12/7,9:46,42-19.54N,142-01.71E,118,8.637,33.1165
588,2023/12/7,9:47,42-19.35N,142-02.16E,119,8.684,33.1207
589,2023/12/7,9:48,42-19.17N,142-02.58E,119,8.689,33.1277
590,2023/12/7,9:49,42-18.99N,142-03.01E,119,8.678,33.1301
591,2023/12/7,9:50,42-18.80N,142-03.46E,120,8.682,33.1375
592,2023/12/7,9:51,42-18.61N,142-03.89E,119,8.639,33.1388
593,2023/12/7,9:52,42-18.42N,142-04.33E,119,8.65,33.1352
594,2023/12/7,9:53,42-18.24N,142-04.76E,119,8.677,33.1312
595,2023/12/7,9:54,42-18.04N,142-05.25E,119,8.694,33.1286
596,2023/12/7,9:55,42-17.86N,142-05.69E,119,8.694,33.1385
597,2023/12/7,9:56,42-17.69N,142-06.09E,120,8.677,33.1404
598,2023/12/7,9:57,42-17.51N,142-06.49E,120,8.664,33.1456
599,2023/12/7,9:58,42-17.32N,142-06.93E,120,8.653,33.1414
600,2023/12/7,9:59,42-17.14N,142-07.35E,120,8.663,33.1432
601,2023/12/7,10:00,42-16.94N,142-07.79E,120,8.676,33.1464
602,2023/12/7,10:01,42-16.75N,142-08.26E,119,8.663,33.1511
603,2023/12/7,10:02,42-16.56N,142-08.69E,119,8.681,33.1458
604,2023/12/7,10:03,42-16.36N,142-09.18E,118,8.695,33.1298
605,2023/12/7,10:04,42-16.19N,142-09.59E,118,8.705,33.1304
606,2023/12/7,10:05,42-16.00N,142-10.03E,118,8.707,33.1241
607,2023/12/7,10:06,42-15.82N,142-10.47E,119,8.718,33.1201
608,2023/12/7,10:07,42-15.64N,142-10.89E,119,8.711,33.1272
609,2023/12/7,10:08,42-15.45N,142-11.32E,119,8.701,33.1302
610,2023/12/7,10:09,42-15.27N,142-11.73E,120,8.677,33.1273
611,2023/12/7,10:10,42-15.08N,142-12.19E,119,8.654,33.1173
612,2023/12/7,10:11,42-14.90N,142-12.60E,119,8.648,33.1175
613,2023/12/7,10:12,42-14.73N,142-13.00E,119,8.628,33.1128
614,2023/12/7,10:13,42-14.53N,142-13.47E,120,8.617,33.1088
615,2023/12/7,10:14,42-14.33N,142-13.92E,120,8.636,33.0959
616,2023/12/7,10:15,42-14.15N,142-14.36E,119,8.687,33.0884
617,2023/12/7,10:16,42-13.96N,142-14.80E,119,8.701,33.0908
618,2023/12/7,10:17,42-13.78N,142-15.22E,120,8.665,33.0921
619,2023/12/7,10:18,42-13.60N,142-15.65E,119,8.597,33.0925
620,2023/12/7,10:19,42-13.42N,142-16.08E,119,8.556,33.0963
621,2023/12/7,10:20,42-13.26N,142-16.46E,119,8.545,33.0835
622,2023/12/7,10:21,42-13.08N,142-16.89E,120,8.539,33.0718
623,2023/12/7,10:22,42-12.88N,142-17.34E,119,8.502,33.0748
624,2023/12/7,10:23,42-12.71N,142-17.75E,119,8.486,33.0772
625,2023/12/7,10:24,42-12.53N,142-18.18E,119,8.482,33.0689
626,2023/12/7,10:25,42-12.34N,142-18.63E,119,8.47,33.0668
627,2023/12/7,10:26,42-12.16N,142-19.05E,119,8.511,33.0633
628,2023/12/7,10:27,42-11.98N,142-19.49E,119,8.558,33.0516
629,2023/12/7,10:28,42-11.80N,142-19.91E,119,8.593,33.0511
630,2023/12/7,10:29,42-11.62N,142-20.34E,119,8.646,33.0481
631,2023/12/7,10:30,42-11.41N,142-20.84E,119,8.712,33.0491
632,2023/12/7,10:31,42-11.24N,142-21.25E,119,8.765,33.0545
633,2023/12/7,10:32,42-11.07N,142-21.66E,119,8.824,33.056
634,2023/12/7,10:33,42-10.88N,142-22.09E,119,8.864,33.0527
635,2023/12/7,10:34,42-10.70N,142-22.53E,119,8.906,33.0564
636,2023/12/7,10:35,42-10.51N,142-22.98E,119,8.94,33.062
637,2023/12/7,10:36,42-10.33N,142-23.39E,120,8.951,33.0688
638,2023/12/7,10:37,42-10.14N,142-23.83E,120,8.945,33.0667
639,2023/12/7,10:38,42-09.96N,142-24.26E,119,8.936,33.0653
640,2023/12/7,10:39,42-09.78N,142-24.69E,119,8.933,33.075
641,2023/12/7,10:40,42-09.59N,142-25.17E,119,8.933,33.079
642,2023/12/7,10:41,42-09.39N,142-25.64E,119,8.938,33.0814
643,2023/12/7,10:42,42-09.21N,142-26.07E,119,8.946,33.0789
644,2023/12/7,10:43,42-09.03N,142-26.50E,119,8.961,33.0766
645,2023/12/7,10:44,42-08.85N,142-26.93E,119,8.972,33.0748
646,2023/12/7,10:45,42-08.66N,142-27.38E,120,8.986,33.0776
647,2023/12/7,10:46,42-08.48N,142-27.81E,119,8.995,33.0845
648,2023/12/7,10:47,42-08.28N,142-28.27E,119,8.992,33.0912
649,2023/12/7,10:48,42-08.11N,142-28.68E,119,8.985,33.0847
650,2023/12/7,10:49,42-07.93N,142-29.11E,119,8.971,33.0875
651,2023/12/7,10:50,42-07.74N,142-29.55E,119,8.948,33.0897
652,2023/12/7,10:51,42-07.57N,142-29.95E,119,8.939,33.0891
653,2023/12/7,10:52,42-07.38N,142-30.41E,119,8.944,33.0886
654,2023/12/7,10:53,42-07.19N,142-30.84E,121,8.952,33.0941
655,2023/12/7,10:54,42-07.00N,142-31.26E,120,8.981,33.0828
656,2023/12/7,10:55,42-06.79N,142-31.72E,121,8.992,33.0868
657,2023/12/7,10:56,42-06.61N,142-32.11E,121,9.003,33.089
658,2023/12/7,10:57,42-06.43N,142-32.48E,121,8.998,33.0946
659,2023/12/7,10:58,42-06.24N,142-32.89E,122,9.001,33.0981
660,2023/12/7,10:59,42-06.04N,142-33.32E,122,9,33.0928
661,2023/12/7,11:00,42-05.85N,142-33.75E,121,8.995,33.0908
662,2023/12/7,11:01,42-05.65N,142-34.17E,121,8.978,33.0885
663,2023/12/7,11:02,42-05.46N,142-34.60E,121,8.988,33.0941
664,2023/12/7,11:03,42-05.26N,142-35.04E,121,9.001,33.095
665,2023/12/7,11:04,42-05.07N,142-35.46E,121,9.005,33.0948
666,2023/12/7,11:05,42-04.87N,142-35.89E,121,9.011,33.0904
667,2023/12/7,11:06,42-04.66N,142-36.35E,120,9.008,33.0891
668,2023/12/7,11:07,42-04.46N,142-36.79E,121,9.023,33.0903
669,2023/12/7,11:08,42-04.25N,142-37.24E,122,9.03,33.0958
670,2023/12/7,11:09,42-04.07N,142-37.65E,121,9.037,33.097
671,2023/12/7,11:10,42-03.88N,142-38.07E,121,9.041,33.0952
672,2023/12/7,11:11,42-03.68N,142-38.50E,122,9.043,33.097
673,2023/12/7,11:12,42-03.49N,142-38.90E,122,9.045,33.095
674,2023/12/7,11:13,42-03.30N,142-39.32E,120,9.046,33.1018
675,2023/12/7,11:14,42-03.14N,142-39.69E,122,9.046,33.1045
676,2023/12/7,11:15,42-02.94N,142-40.12E,120,9.041,33.0977
677,2023/12/7,11:16,42-02.75N,142-40.53E,121,9.029,33.098
678,2023/12/7,11:17,42-02.56N,142-40.96E,120,9.022,33.0951
679,2023/12/7,11:18,42-02.36N,142-41.40E,122,9.007,33.0916
680,2023/12/7,11:19,42-02.17N,142-41.81E,122,8.989,33.096
681,2023/12/7,11:20,42-01.97N,142-42.25E,120,8.983,33.0954
682,2023/12/7,11:21,42-01.77N,142-42.68E,122,8.99,33.0858
683,2023/12/7,11:22,42-01.58N,142-43.09E,122,8.98,33.0828
684,2023/12/7,11:23,42-01.38N,142-43.52E,121,8.965,33.0887
685,2023/12/7,11:24,42-01.19N,142-43.94E,121,8.928,33.0879
686,2023/12/7,11:25,42-00.99N,142-44.36E,121,8.886,33.0924
687,2023/12/7,11:26,42-00.81N,142-44.78E,121,8.817,33.0916
688,2023/12/7,11:27,42-00.61N,142-45.21E,120,8.794,33.0846
689,2023/12/7,11:28,42-00.42N,142-45.63E,121,8.797,33.0808
690,2023/12/7,11:29,42-00.23N,142-46.04E,122,8.806,33.0742
691,2023/12/7,11:30,42-00.04N,142-46.47E,121,8.802,33.0819
692,2023/12/7,11:31,41-59.85N,142-46.88E,121,8.797,33.0848
693,2023/12/7,11:32,41-59.65N,142-47.30E,121,8.798,33.0826
694,2023/12/7,11:33,41-59.44N,142-47.78E,121,8.81,33.0809
695,2023/12/7,11:34,41-59.23N,142-48.24E,121,8.824,33.0831
696,2023/12/7,11:35,41-59.04N,142-48.65E,121,8.839,33.0857
697,2023/12/7,11:36,41-58.88N,142-49.00E,121,8.851,33.0848
698,2023/12/7,11:37,41-58.68N,142-49.43E,121,8.878,33.0923
699,2023/12/7,11:38,41-58.48N,142-49.87E,121,8.885,33.087
700,2023/12/7,11:39,41-58.26N,142-50.35E,121,8.883,33.0863
701,2023/12/7,11:40,41-58.07N,142-50.77E,122,8.905,33.0934
702,2023/12/7,11:41,41-57.87N,142-51.20E,122,8.927,33.1024
703,2023/12/7,11:42,41-57.68N,142-51.61E,122,8.916,33.1035
704,2023/12/7,11:43,41-57.51N,142-51.98E,120,8.859,33.1003
705,2023/12/7,11:44,41-57.32N,142-52.41E,120,8.832,33.0957
706,2023/12/7,11:45,41-57.09N,142-52.90E,122,8.828,33.1018
707,2023/12/7,11:46,41-56.89N,142-53.33E,122,8.822,33.1044
708,2023/12/7,11:47,41-56.70N,142-53.75E,122,8.801,33.0976
709,2023/12/7,11:48,41-56.50N,142-54.17E,123,8.778,33.0946
710,2023/12/7,11:49,41-56.32N,142-54.59E,121,8.771,33.0916
711,2023/12/7,11:50,41-56.12N,142-55.00E,122,8.78,33.0867
712,2023/12/7,11:51,41-55.93N,142-55.42E,120,8.798,33.0893
713,2023/12/7,11:52,41-55.75N,142-55.82E,122,8.813,33.0894
714,2023/12/7,11:53,41-55.59N,142-56.19E,120,8.826,33.088
715,2023/12/7,11:54,41-55.42N,142-56.58E,120,8.843,33.0827
716,2023/12/7,11:55,41-55.20N,142-57.05E,122,8.847,33.0835
717,2023/12/7,11:56,41-55.02N,142-57.44E,121,8.82,33.0865
718,2023/12/7,11:57,41-54.83N,142-57.88E,121,8.818,33.0823
719,2023/12/7,11:58,41-54.64N,142-58.30E,120,8.822,33.0851
720,2023/12/7,11:59,41-54.47N,142-58.72E,119,8.727,33.076
721,2023/12/7,12:00,41-54.27N,142-59.12E,121,8.579,33.0618
722,2023/12/7,12:01,41-54.10N,142-59.52E,120,8.43,33.0347
723,2023/12/7,12:02,41-53.92N,142-59.92E,120,8.367,33.0034
724,2023/12/7,12:03,41-53.73N,143-00.34E,120,8.36,32.9713
725,2023/12/7,12:04,41-53.56N,143-00.73E,120,8.358,32.946
726,2023/12/7,12:05,41-53.40N,143-01.11E,121,8.37,32.9331
727,2023/12/7,12:06,41-53.21N,143-01.51E,121,8.383,32.9243
728,2023/12/7,12:07,41-53.03N,143-01.91E,120,8.448,32.9153
729,2023/12/7,12:08,41-52.84N,143-02.33E,120,8.493,32.9213
730,2023/12/7,12:09,41-52.66N,143-02.74E,120,8.512,32.9372
731,2023/12/7,12:10,41-52.47N,143-03.15E,121,8.558,32.9478
732,2023/12/7,12:11,41-52.28N,143-03.57E,120,8.602,32.9592
733,2023/12/7,12:12,41-52.11N,143-03.97E,121,8.61,32.9736
734,2023/12/7,12:13,41-51.92N,143-04.38E,121,8.577,32.9736
735,2023/12/7,12:14,41-51.74N,143-04.79E,119,8.543,32.9776
736,2023/12/7,12:15,41-51.55N,143-05.22E,119,8.475,32.9742
737,2023/12/7,12:16,41-51.38N,143-05.63E,120,8.416,32.9718
738,2023/12/7,12:17,41-51.21N,143-06.05E,119,8.394,32.9591
739,2023/12/7,12:18,41-51.02N,143-06.48E,119,8.33,32.9623
740,2023/12/7,12:19,41-50.84N,143-06.90E,119,8.304,32.946
741,2023/12/7,12:20,41-50.64N,143-07.37E,120,8.273,32.9351
742,2023/12/7,12:21,41-50.47N,143-07.78E,118,8.126,32.9293
743,2023/12/7,12:22,41-50.29N,143-08.20E,119,8.022,32.9251
744,2023/12/7,12:23,41-50.11N,143-08.63E,118,8.001,32.9116
745,2023/12/7,12:24,41-49.94N,143-09.06E,118,8.013,32.8915
746,2023/12/7,12:25,41-49.77N,143-09.46E,119,8.027,32.8791
747,2023/12/7,12:26,41-49.59N,143-09.88E,119,8.025,32.861
748,2023/12/7,12:27,41-49.41N,143-10.30E,119,8.011,32.8555
749,2023/12/7,12:28,41-49.23N,143-10.73E,118,8.016,32.8536
750,2023/12/7,12:29,41-49.09N,143-11.10E,116,8.019,32.8497
751,2023/12/7,12:30,41-48.90N,143-11.59E,117,8.028,32.8455
752,2023/12/7,12:31,41-48.74N,143-11.99E,117,8.028,32.8503
753,2023/12/7,12:32,41-48.61N,143-12.42E,106,8.026,32.8537
754,2023/12/7,12:33,41-48.61N,143-12.90E,89,8.014,32.8673
755,2023/12/7,12:34,41-48.62N,143-13.37E,88,8.056,32.8756
756,2023/12/7,12:35,41-48.64N,143-13.86E,87,8.089,32.8754
757,2023/12/7,12:36,41-48.64N,143-14.30E,89,8.079,32.8806
758,2023/12/7,12:37,41-48.65N,143-14.75E,88,8.024,32.869
759,2023/12/7,12:38,41-48.65N,143-15.24E,89,7.954,32.8346
760,2023/12/7,12:39,41-48.65N,143-15.73E,90,7.932,32.7954
761,2023/12/7,12:40,41-48.64N,143-16.23E,91,7.918,32.7614
762,2023/12/7,12:41,41-48.63N,143-16.77E,91,7.898,32.7407
763,2023/12/7,12:42,41-48.64N,143-17.27E,89,7.9,32.7321
764,2023/12/7,12:43,41-48.65N,143-17.78E,86,7.901,32.7261
765,2023/12/7,12:44,41-48.69N,143-18.23E,82,7.896,32.7295
766,2023/12/7,12:45,41-48.76N,143-18.72E,78,7.896,32.733
767,2023/12/7,12:46,41-48.86N,143-19.19E,72,7.917,32.7292
768,2023/12/7,12:47,41-49.01N,143-19.64E,65,7.943,32.7277
769,2023/12/7,12:48,41-49.17N,143-20.09E,64,7.954,32.7235
770,2023/12/7,12:49,41-49.33N,143-20.52E,63,7.967,32.7295
771,2023/12/7,12:50,41-49.52N,143-20.90E,56,8.004,32.7262
772,2023/12/7,12:51,41-49.73N,143-21.24E,49,8.019,32.7261
773,2023/12/7,12:52,41-49.96N,143-21.60E,49,8.041,32.7393
774,2023/12/7,12:53,41-50.20N,143-21.98E,50,8.068,32.749
775,2023/12/7,12:54,41-50.42N,143-22.33E,49,8.103,32.7611
776,2023/12/7,12:55,41-50.66N,143-22.70E,47,8.176,32.7718
777,2023/12/7,12:56,41-50.92N,143-23.00E,37,8.234,32.8036
778,2023/12/7,12:57,41-51.19N,143-23.25E,32,8.337,32.8288
779,2023/12/7,12:58,41-51.49N,143-23.49E,30,8.41,32.8582
780,2023/12/7,12:59,41-51.78N,143-23.72E,30,8.447,32.89
781,2023/12/7,13:00,41-52.09N,143-23.96E,30,8.443,32.9182
782,2023/12/7,13:01,41-52.36N,143-24.18E,32,8.438,32.931
783,2023/12/7,13:02,41-52.65N,143-24.44E,33,8.453,32.949
784,2023/12/7,13:03,41-52.93N,143-24.68E,32,8.466,32.9587
785,2023/12/7,13:04,41-53.21N,143-24.92E,32,8.464,32.9985
786,2023/12/7,13:05,41-53.51N,143-25.18E,33,8.468,33.0049
787,2023/12/7,13:06,41-53.78N,143-25.43E,34,8.463,33.1164
788,2023/12/7,13:07,41-54.06N,143-25.68E,33,8.474,33.3284
789,2023/12/7,13:08,41-54.36N,143-25.91E,29,8.486,33.2221
790,2023/12/7,13:09,41-54.70N,143-26.17E,29,8.492,33.1032
791,2023/12/7,13:10,41-55.02N,143-26.40E,29,8.495,32.8672
792,2023/12/7,13:11,41-55.32N,143-26.64E,30,8.492,32.6859
793,2023/12/7,13:12,41-55.60N,143-26.85E,28,8.488,32.5599
794,2023/12/7,13:13,41-55.93N,143-27.09E,29,8.484,32.4914
795,2023/12/7,13:14,41-56.23N,143-27.34E,30,8.488,32.4372
796,2023/12/7,13:15,41-56.50N,143-27.55E,29,8.486,32.4201
797,2023/12/7,13:16,41-56.77N,143-27.76E,29,8.485,32.4336
798,2023/12/7,13:17,41-57.08N,143-28.00E,30,8.48,32.4032
799,2023/12/7,13:18,41-57.37N,143-28.22E,29,8.48,32.3959
800,2023/12/7,13:19,41-57.67N,143-28.44E,29,8.465,32.3988
801,2023/12/7,13:20,41-57.99N,143-28.68E,29,8.466,32.3862
802,2023/12/7,13:21,41-58.28N,143-28.90E,28,8.465,32.2913
803,2023/12/7,13:22,41-58.61N,143-29.15E,29,8.47,32.2751
804,2023/12/7,13:23,41-58.95N,143-29.40E,28,8.47,32.2732
805,2023/12/7,13:24,41-59.24N,143-29.63E,29,8.47,32.3037
806,2023/12/7,13:25,41-59.54N,143-29.84E,28,8.474,32.3255
807,2023/12/7,13:26,41-59.82N,143-30.04E,28,8.47,32.3239
808,2023/12/7,13:27,42-00.13N,143-30.27E,27,8.469,32.33
809,2023/12/7,13:28,42-00.45N,143-30.50E,28,8.468,32.342
810,2023/12/7,13:29,42-00.76N,143-30.72E,27,8.467,32.349
811,2023/12/7,13:30,42-01.08N,143-30.95E,27,8.466,32.3522
812,2023/12/7,13:31,42-01.39N,143-31.18E,28,8.464,32.3847
813,2023/12/7,13:32,42-01.70N,143-31.40E,27,8.458,32.3851
814,2023/12/7,13:33,42-02.01N,143-31.62E,28,8.457,32.3949
815,2023/12/7,13:34,42-02.30N,143-31.83E,26,8.454,32.4067
816,2023/12/7,13:35,42-02.60N,143-32.04E,26,8.448,32.434
817,2023/12/7,13:36,42-02.91N,143-32.26E,28,8.447,32.4329
818,2023/12/7,13:37,42-03.20N,143-32.46E,28,8.443,32.4448
819,2023/12/7,13:38,42-03.50N,143-32.67E,27,8.435,32.4732
820,2023/12/7,13:39,42-03.81N,143-32.89E,27,8.437,32.472
821,2023/12/7,13:40,42-04.10N,143-33.09E,27,8.439,32.4679
822,2023/12/7,13:41,42-04.42N,143-33.31E,28,8.438,32.5394
823,2023/12/7,13:42,42-04.71N,143-33.51E,27,8.443,32.6239
824,2023/12/7,13:43,42-05.01N,143-33.72E,28,8.44,32.658
825,2023/12/7,13:44,42-05.31N,143-33.95E,29,8.437,32.716
826,2023/12/7,13:45,42-05.61N,143-34.18E,29,8.427,32.7672
827,2023/12/7,13:46,42-05.89N,143-34.40E,30,8.423,32.8367
828,2023/12/7,13:47,42-06.18N,143-34.64E,31,8.405,32.8245
829,2023/12/7,13:48,42-06.48N,143-34.88E,31,8.398,32.8534
830,2023/12/7,13:49,42-06.76N,143-35.11E,31,8.386,32.836
831,2023/12/7,13:50,42-07.04N,143-35.34E,31,8.377,32.8285
832,2023/12/7,13:51,42-07.33N,143-35.58E,31,8.369,32.8198
833,2023/12/7,13:52,42-07.63N,143-35.81E,30,8.373,32.84
834,2023/12/7,13:53,42-07.92N,143-36.04E,30,8.39,32.8622
835,2023/12/7,13:54,42-08.22N,143-36.28E,30,8.389,32.8722
836,2023/12/7,13:55,42-08.50N,143-36.51E,31,8.394,32.8877
837,2023/12/7,13:56,42-08.81N,143-36.76E,31,8.386,32.9105
838,2023/12/7,13:57,42-09.08N,143-36.98E,31,8.374,32.9264
839,2023/12/7,13:58,42-09.38N,143-37.23E,31,8.345,32.9337
840,2023/12/7,13:59,42-09.66N,143-37.47E,32,8.339,32.9484
841,2023/12/7,14:00,42-09.96N,143-37.71E,30,8.357,32.9795
842,2023/12/7,14:01,42-10.26N,143-37.96E,30,8.438,33.0222
843,2023/12/7,14:02,42-10.57N,143-38.22E,31,8.516,33.1041
844,2023/12/7,14:03,42-10.86N,143-38.45E,30,8.505,33.145
845,2023/12/7,14:04,42-11.13N,143-38.67E,32,8.456,33.1487
846,2023/12/7,14:05,42-11.41N,143-38.91E,31,8.349,33.1283
847,2023/12/7,14:06,42-11.66N,143-39.11E,32,8.262,33.0984
848,2023/12/7,14:07,42-11.93N,143-39.34E,31,8.199,33.0691
849,2023/12/7,14:08,42-12.22N,143-39.57E,31,8.14,33.0095
850,2023/12/7,14:09,42-12.49N,143-39.80E,31,8.116,32.9804
851,2023/12/7,14:10,42-12.78N,143-40.04E,32,8.119,32.9808
852,2023/12/7,14:11,42-13.06N,143-40.27E,32,8.133,32.9438
853,2023/12/7,14:12,42-13.33N,143-40.50E,32,8.141,32.8936
854,2023/12/7,14:13,42-13.64N,143-40.76E,31,8.147,32.8809
855,2023/12/7,14:14,42-13.93N,143-41.00E,31,8.17,32.8734
856,2023/12/7,14:15,42-14.22N,143-41.23E,31,8.177,32.8663
857,2023/12/7,14:16,42-14.50N,143-41.47E,31,8.18,32.8706
858,2023/12/7,14:17,42-14.74N,143-41.66E,31,8.191,32.8643
859,2023/12/7,14:18,42-15.02N,143-41.90E,31,8.19,32.8535
860,2023/12/7,14:19,42-15.30N,143-42.13E,31,8.19,32.8604
861,2023/12/7,14:20,42-15.58N,143-42.36E,31,8.208,32.8604
862,2023/12/7,14:21,42-15.86N,143-42.60E,32,8.217,32.8681
863,2023/12/7,14:22,42-16.14N,143-42.83E,32,8.235,32.8766
864,2023/12/7,14:23,42-16.45N,143-43.10E,32,8.251,32.8939
865,2023/12/7,14:24,42-16.75N,143-43.34E,32,8.282,32.8846
866,2023/12/7,14:25,42-17.00N,143-43.56E,32,8.305,32.8985
867,2023/12/7,14:26,42-17.29N,143-43.80E,31,8.338,32.9065
868,2023/12/7,14:27,42-17.56N,143-44.03E,32,8.376,32.9217
869,2023/12/7,14:28,42-17.83N,143-44.26E,31,8.406,32.9331
870,2023/12/7,14:29,42-18.11N,143-44.48E,30,8.451,32.9577
871,2023/12/7,14:30,42-18.38N,143-44.69E,30,8.476,32.9622
872,2023/12/7,14:31,42-18.66N,143-44.92E,30,8.504,32.9737
873,2023/12/7,14:32,42-18.93N,143-45.13E,29,8.521,32.9761
874,2023/12/7,14:33,42-19.22N,143-45.35E,29,8.539,32.9811
875,2023/12/7,14:34,42-19.49N,143-45.56E,29,8.546,32.9856
876,2023/12/7,14:35,42-19.77N,143-45.78E,30,8.564,32.9863
877,2023/12/7,14:36,42-20.00N,143-45.96E,30,8.595,32.9882
878,2023/12/7,14:37,42-20.27N,143-46.17E,29,8.613,32.9957
879,2023/12/7,14:38,42-20.54N,143-46.38E,30,8.63,32.9973
880,2023/12/7,14:39,42-20.82N,143-46.60E,29,8.655,32.9938
881,2023/12/7,14:40,42-21.09N,143-46.80E,29,8.681,32.993
882,2023/12/7,14:41,42-21.37N,143-47.02E,30,8.703,33
883,2023/12/7,14:42,42-21.67N,143-47.25E,30,8.701,33.0096
884,2023/12/7,14:43,42-21.96N,143-47.47E,29,8.706,33.0139
885,2023/12/7,14:44,42-22.21N,143-47.66E,29,8.707,33.0138
886,2023/12/7,14:45,42-22.47N,143-47.85E,29,8.735,33.0127
887,2023/12/7,14:46,42-22.75N,143-48.07E,29,8.759,33.0201
888,2023/12/7,14:47,42-23.01N,143-48.27E,29,8.802,33.022
889,2023/12/7,14:48,42-23.30N,143-48.49E,29,8.828,33.0353
890,2023/12/7,14:49,42-23.56N,143-48.69E,29,8.824,33.046
891,2023/12/7,14:50,42-23.84N,143-48.90E,29,8.822,33.0425
892,2023/12/7,14:51,42-24.12N,143-49.11E,29,8.822,33.0404
893,2023/12/7,14:52,42-24.40N,143-49.32E,29,8.826,33.0495
894,2023/12/7,14:53,42-24.67N,143-49.53E,30,8.843,33.0479
895,2023/12/7,14:54,42-24.95N,143-49.74E,29,8.854,33.0524
896,2023/12/7,14:55,42-25.22N,143-49.94E,28,8.861,33.0578
897,2023/12/7,14:56,42-25.50N,143-50.15E,28,8.874,33.053
898,2023/12/7,14:57,42-25.76N,143-50.35E,29,8.883,33.0567
899,2023/12/7,14:58,42-26.05N,143-50.57E,29,8.889,33.0596
900,2023/12/7,14:59,42-26.31N,143-50.77E,29,8.874,33.0636
901,2023/12/7,15:00,42-26.59N,143-50.99E,30,8.815,33.0651
902,2023/12/7,15:01,42-26.87N,143-51.20E,30,8.639,33.0569
903,2023/12/7,15:02,42-27.13N,143-51.41E,30,8.516,33.0303
904,2023/12/7,15:03,42-27.41N,143-51.62E,29,8.442,33.0048
905,2023/12/7,15:04,42-27.72N,143-51.85E,29,8.41,32.9804
906,2023/12/7,15:05,42-27.99N,143-52.06E,29,8.412,32.9546
907,2023/12/7,15:06,42-28.27N,143-52.27E,29,8.376,32.9466
908,2023/12/7,15:07,42-28.55N,143-52.47E,28,8.345,32.9448
909,2023/12/7,15:08,42-28.83N,143-52.67E,27,8.398,32.9294
910,2023/12/7,15:09,42-29.10N,143-52.86E,28,8.485,32.917
911,2023/12/7,15:10,42-29.38N,143-53.07E,28,8.525,32.9178
912,2023/12/7,15:11,42-29.68N,143-53.27E,27,8.628,32.9363
913,2023/12/7,15:12,42-29.94N,143-53.46E,27,8.694,32.9553
914,2023/12/7,15:13,42-30.23N,143-53.67E,28,8.764,32.9932
915,2023/12/7,15:14,42-30.50N,143-53.86E,27,8.796,33.0126
916,2023/12/7,15:15,42-30.77N,143-54.06E,26,8.798,33.0244